Regional Weather Roundup
Issued by NWS

Home | Current Version | Previous Version | Graphics & Text | Print | Product List | Glossary On
Versions: 1 2 3 4 5 6 7 8 9 10 11 12 13 14 15 16 17 18 19 20 21 22 23 24 25 26 27 28 29 30 31 32 33 34 35 36 37 38 39 40 41 42 43 44 45 46 47 48 49 50
000
ASUS45 KCYS 220910
RWRWY

WYOMING REGIONAL WEATHER ROUNDUP
NATIONAL WEATHER SERVICE CHEYENNE WY
300 AM MDT MON SEP 22 2014

NOTE:  "FAIR" INDICATES FEW OR NO CLOUDS BELOW 12,000 FEET
WITH NO SIGNIFICANT WEATHER AND/OR OBSTRUCTIONS TO VISIBILITY.

WYZ001-221000-
YELLOWSTONE NATIONAL PARK

CITY           SKY/WX    TMP DP  RH WIND       PRES   REMARKS
LK YELLOWSTONE   N/A     48  46  93 CALM      30.31F
W YELLOWSTONE  NOT AVBL

$$
WYZ002>013-054>058-071-098>099-221000-
NORTHERN WYOMING

CITY           SKY/WX    TMP DP  RH WIND       PRES   REMARKS
JACKSON        CLOUDY    52  50  93 SE3       30.24F
CODY             N/A    N/A N/A N/A MISG        N/A
GREYBULL       CLOUDY    61  46  57 CALM      30.04F
WORLAND        CLOUDY    60  47  61 S6        30.05F
SHERIDAN       CLOUDY    55  44  66 S6        30.04F
BUFFALO        CLOUDY    60  42  51 S15       30.10F
GILLETTE       MOCLDY    57  40  52 S10       30.12F
HULETT         FAIR      64  39  39 MISG      30.15
NEWCASTLE      FAIR      61  36  39 E14G22    30.19

$$
WYZ014>020-022>026-101>103-221000-
CENTRAL WYOMING

CITY           SKY/WX    TMP DP  RH WIND       PRES   REMARKS
BIG PINEY      MOCLDY    49  48  97 CALM      30.28S
PINEDALE       CLOUDY    48  48 100 NE5       30.29S
DUBOIS         PTSUNNY   46  45  93 NW12      30.25S
LANDER         PTCLDY    57  44  62 W9        30.12F
RIVERTON       PTCLDY    58  45  62 SE5       30.13F
CASPER         CLOUDY    56  41  57 VRB3      30.15F
DOUGLAS        CLOUDY    58  40  51 SE14      30.18F

$$
WYZ021-027>030-104>119-221000-
SOUTHERN WYOMING

CITY           SKY/WX    TMP DP  RH WIND       PRES   REMARKS
EVANSTON       LGT RAIN  46  45  96 S5        30.28S FOG
KEMMERER       FOG       46  46 100 NW3       30.29S VSB<1/4
FORT BRIDGER     N/A     45  45 100 W10       30.30S
ROCK SPRINGS   PTCLDY    49  47  93 W5        30.26F
DIXON          FAIR      51  48  88 CALM      30.28R
RAWLINS        PTCLDY    50  44  80 NW9       30.25F
SARATOGA       FAIR      55  45  67 SE13      30.27F
LARAMIE        MOCLDY    49  42  77 S9        30.29F
CHEYENNE       MOCLDY    52  43  71 S3        30.28F
TORRINGTON     MOCLDY    59  42  53 SE10      30.19F
PINE BLUFFS    FAIR      55  39  54 S13G18    30.25F

$$



USA.gov is the U.S. government's official web portal to all federal, state and local government web resources and services.